Retour au catalogue

STARLINK-30553

ActifCommunicationsVLEO
NORAD 58056·PAYLOAD·🇺🇸 United States

Lancé Oct 13, 2023 depuis Cape Canaveral Space Force Station

Loading…

Prochains Passages (prochaines 24 heures)

TLE

FraisSource: CelesTrak SupGP

Époque: Sep 15, 2026, 03:10 UTC

1 58056C 23158F   26258.13243056 -.00014817  00000+0 -53677-3 0  2581
2 58056  43.0031  37.0446 0001740 271.7126 111.9370 15.27578807    12

Suivez STARLINK-30553 en temps réel avec AllMySat

Download on the App Store